[[{"header":{"parameterUnit":"m.s-1","parameterCategory":2,"la1":30.2992,"la2":30.254,"lo1":-89.0895,"lo2":-89.0443,"dy":0.0025,"dx":0.0025,"nx":19,"ny":19,"refTime":"2026-05-12T21:00:00:Z","depth":"0","parameterNumber":2,"parameterNumberName":"U-component_of_CURRENTS"},"data":[0,0,0,-0.1926,-0.1926,-0.19,-0.1899,-0.1833,-0.1833,0,0,0,0,0,0,0,0,0,0,0,-0.1929,-0.1929,-0.1926,-0.1926,-0.19,-0.1899,-0.1833,-0.1833,0,0,0,0,0,0,0,0,0,0,0,-0.1929,-0.1929,-0.1929,-0.1926,-0.19,-0.1899,-0.1834,-0.1859,0,0,0,0,0,0,0,0,0,0,-0.1887,-0.1895,-0.1929,-0.1929,-0.1926,-0.19,-0.1899,-0.186,-0.1857,-0.184,0,-0.184,0,-0.1842,-0.1829,-0.1829,0,0,0,-0.1914,-0.1898,-0.1898,-0.1929,-0.1926,-0.19,-0.1908,-0.1858,-0.1855,-0.1836,-0.1839,-0.1837,-0.1841,-0.1828,-0.1828,-0.1845,-0.1845,0,0,-0.1915,-0.1915,-0.19,-0.1896,-0.1924,-0.1909,-0.1907,-0.1857,-0.185,-0.1839,-0.1836,-0.184,-0.1828,-0.1828,-0.1844,-0.1845,0,0,0,-0.1928,-0.1916,-0.1917,-0.1898,-0.19,-0.1909,-0.1907,-0.1852,-0.1855,-0.1835,-0.1839,-0.1828,-0.1827,-0.1843,-0.1844,-0.1909,0,0,0,-0.1928,-0.1924,-0.1918,-0.1916,-0.1901,-0.188,-0.1903,-0.1858,-0.1853,-0.184,-0.1828,-0.1826,-0.1843,-0.1844,-0.1906,-0.1947,0,0,0,-0.193,-0.1924,-0.1925,-0.1917,-0.1912,-0.1881,-0.188,-0.1857,-0.1856,-0.1829,-0.1826,-0.1842,-0.1844,-0.1903,-0.1942,-0.1965,0,0,0,-0.1925,-0.1932,-0.1924,-0.1942,-0.1913,-0.1932,-0.188,-0.1877,-0.186,-0.1827,-0.1843,-0.1844,-0.1902,-0.1938,-0.1962,-0.1838,-0.1842,0,0,-0.1935,-0.1933,-0.1949,-0.1942,-0.1976,-0.1934,-0.1965,-0.1915,-0.1877,-0.1853,-0.1853,-0.1907,-0.1941,-0.1964,-0.1925,-0.1926,0,0,0,-0.1954,-0.1959,-0.1971,-0.1987,-0.1999,-0.2011,-0.1968,-0.1956,-0.1937,-0.1876,-0.192,-0.194,-0.1952,-0.1871,-0.1872,-0.1819,-0.1851,-0.1851,-0.1851,-0.1941,-0.197,-0.2001,-0.2032,-0.205,-0.2058,-0.207,-0.2046,-0.199,-0.2001,-0.2001,-0.2078,-0.1993,-0.1993,-0.1941,-0.2004,-0.2005,-0.2005,-0.2005,-0.1956,-0.1964,-0.2023,-0.2059,-0.2096,-0.2117,-0.2146,-0.2127,-0.2138,-0.2083,-0.209,-0.1955,-0.1998,-0.1942,-0.2009,-0.2009,-0.2008,-0.2008,-0.2007,-0.1915,-0.1923,-0.1969,-0.204,-0.2102,-0.2145,-0.2195,-0.2217,-0.2199,-0.2222,-0.2092,-0.2089,-0.203,-0.2203,-0.2204,-0.2204,-0.2204,-0.2205,-0.2205,-0.1837,-0.189,-0.1916,-0.2016,-0.2051,-0.2128,-0.2217,-0.2232,-0.2206,-0.2166,-0.2164,-0.2047,-0.2138,-0.2119,-0.2209,-0.2209,-0.2208,-0.2208,-0.2207,-0.1736,-0.178,-0.1811,-0.1851,-0.1958,-0.1954,-0.2109,-0.2106,-0.2157,-0.211,-0.2021,-0.2124,-0.2089,-0.2084,-0.2064,-0.2135,-0.2135,-0.2135,-0.2135,-0.1647,-0.1684,-0.1685,-0.1714,-0.1777,-0.1849,-0.178,-0.1846,-0.1899,-0.1892,-0.1966,-0.1883,-0.1889,-0.1838,-0.1839,-0.1812,-0.1818,-0.1818,-0.1818,-0.1566,-0.1593,-0.1539,-0.16,-0.1657,-0.1668,-0.1524,-0.1557,-0.1712,-0.1806,-0.1927,-0.194,-0.1822,-0.1834,-0.1752,-0.1759,-0.1713,0,0]},{"header":{"parameterUnit":"m.s-1","parameterCategory":2,"la1":30.2992,"la2":30.254,"lo1":-89.0895,"lo2":-89.0443,"dy":0.0025,"dx":0.0025,"nx":19,"ny":19,"refTime":"2026-05-12T21:00:00:Z","depth":"0","parameterNumber":3,"parameterNumberName":"V-component_of_CURRENTS"},"data":[0,0,0,-0.0593,-0.0594,-0.0599,-0.0599,-0.055,-0.055,0,0,0,0,0,0,0,0,0,0,0,-0.0582,-0.0582,-0.0593,-0.0594,-0.0599,-0.0599,-0.0551,-0.055,0,0,0,0,0,0,0,0,0,0,0,-0.0582,-0.0582,-0.0583,-0.0594,-0.0599,-0.0599,-0.0551,-0.0555,0,0,0,0,0,0,0,0,0,0,-0.0555,-0.0536,-0.0582,-0.0583,-0.0595,-0.0599,-0.0599,-0.0556,-0.0555,-0.054,0,-0.0551,0,-0.0563,-0.0548,-0.0548,0,0,0,-0.0571,-0.0536,-0.0569,-0.0583,-0.0595,-0.06,-0.0591,-0.0555,-0.0554,-0.0538,-0.0551,-0.055,-0.0563,-0.0548,-0.0547,-0.0542,-0.0542,0,0,-0.0571,-0.0548,-0.057,-0.0569,-0.061,-0.0591,-0.0591,-0.0555,-0.054,-0.0551,-0.0549,-0.0562,-0.0547,-0.0547,-0.0541,-0.0542,0,0,0,-0.0586,-0.0548,-0.0581,-0.057,-0.0583,-0.0591,-0.0592,-0.0541,-0.0561,-0.0549,-0.0561,-0.0547,-0.0547,-0.0541,-0.0542,-0.0553,0,0,0,-0.0585,-0.0559,-0.0581,-0.0562,-0.0585,-0.0564,-0.0578,-0.0563,-0.056,-0.0561,-0.0547,-0.0546,-0.0541,-0.0541,-0.0552,-0.0563,0,0,0,-0.0579,-0.0557,-0.057,-0.0562,-0.058,-0.0566,-0.0582,-0.0563,-0.0569,-0.0548,-0.0546,-0.0541,-0.0541,-0.0552,-0.0562,-0.0521,0,0,0,-0.0539,-0.0553,-0.0569,-0.0585,-0.058,-0.0604,-0.0582,-0.0577,-0.0562,-0.0547,-0.0541,-0.0542,-0.0551,-0.0561,-0.0521,-0.0491,-0.0489,0,0,-0.054,-0.0552,-0.0567,-0.0583,-0.0621,-0.0601,-0.0608,-0.0578,-0.0563,-0.0544,-0.0544,-0.0553,-0.0562,-0.0521,-0.052,-0.0516,0,0,0,-0.0557,-0.0573,-0.0584,-0.061,-0.0629,-0.0629,-0.0607,-0.059,-0.0569,-0.0562,-0.0559,-0.0565,-0.0538,-0.0521,-0.0519,-0.0399,-0.0544,-0.0544,-0.0544,-0.0522,-0.0563,-0.0597,-0.0644,-0.0647,-0.0643,-0.063,-0.0605,-0.0585,-0.0579,-0.0579,-0.0566,-0.0549,-0.0547,-0.0425,-0.0582,-0.0582,-0.0582,-0.0582,-0.0566,-0.0616,-0.063,-0.0681,-0.0686,-0.0685,-0.0654,-0.0633,-0.0592,-0.0592,-0.0564,-0.0542,-0.0544,-0.0415,-0.0583,-0.0583,-0.0582,-0.0582,-0.0582,-0.0592,-0.0627,-0.0651,-0.0722,-0.0731,-0.0722,-0.0714,-0.0675,-0.0608,-0.0591,-0.0532,-0.0532,-0.041,-0.056,-0.056,-0.056,-0.056,-0.0559,-0.0559,-0.063,-0.0659,-0.0727,-0.0771,-0.0795,-0.0801,-0.0748,-0.07,-0.0596,-0.0545,-0.0544,-0.0392,-0.0558,-0.055,-0.0558,-0.0558,-0.0558,-0.0558,-0.0558,-0.0716,-0.0722,-0.0822,-0.0863,-0.091,-0.0902,-0.0832,-0.0684,-0.0602,-0.053,-0.0332,-0.0503,-0.0488,-0.049,-0.0479,-0.0468,-0.0468,-0.0468,-0.0468,-0.0769,-0.0784,-0.0914,-0.098,-0.1012,-0.0958,-0.087,-0.0706,-0.0427,-0.0282,-0.0227,-0.0217,-0.0226,-0.0194,-0.0203,-0.0186,-0.0101,-0.01,-0.01,-0.0841,-0.0871,-0.0964,-0.1027,-0.1056,-0.0999,-0.0897,-0.0714,-0.03,-0.0072,-0.0062,-0.0078,-0.0053,-0.0077,-0.0023,-0.0044,-0.0017,0,0]}],[{"header":{"parameterUnit":"m.s-1","parameterCategory":2,"la1":30.2992,"la2":30.254,"lo1":-89.0895,"lo2":-89.0443,"dy":0.0025,"dx":0.0025,"nx":19,"ny":19,"refTime":"2026-05-12T21:00:00:Z","depth":"2","parameterNumber":2,"parameterNumberName":"U-component_of_CURRENTS"},"data":[0,0,0,-0.1808,-0.1809,-0.1818,-0.1818,-0.1769,-0.1769,0,0,0,0,0,0,0,0,0,0,0,-0.1794,-0.1795,-0.1808,-0.1809,-0.1818,-0.1818,-0.1769,-0.1769,0,0,0,0,0,0,0,0,0,0,0,-0.1794,-0.1794,-0.1795,-0.1809,-0.1818,-0.1818,-0.1769,-0.1772,0,0,0,0,0,0,0,0,0,0,-0.1768,-0.1769,-0.1794,-0.1795,-0.181,-0.1818,-0.1818,-0.1772,-0.1771,-0.1755,0,-0.1768,0,-0.1782,-0.1766,-0.1766,0,0,0,-0.1785,-0.177,-0.1782,-0.1795,-0.181,-0.1818,-0.1807,-0.1772,-0.1771,-0.1754,-0.1767,-0.1766,-0.1781,-0.1766,-0.1766,-0.1804,-0.1804,0,0,-0.1785,-0.1782,-0.1783,-0.1782,-0.1826,-0.1807,-0.1808,-0.1772,-0.177,-0.1767,-0.1766,-0.178,-0.1766,-0.1766,-0.1803,-0.1804,0,0,0,-0.1799,-0.1781,-0.1795,-0.1784,-0.1798,-0.1808,-0.1809,-0.1771,-0.1779,-0.1765,-0.178,-0.1766,-0.1765,-0.1802,-0.1803,-0.1862,0,0,0,-0.1798,-0.1792,-0.1795,-0.1791,-0.18,-0.1794,-0.1808,-0.1781,-0.1778,-0.178,-0.1766,-0.1765,-0.1802,-0.1803,-0.1858,-0.1901,0,0,0,-0.1791,-0.1791,-0.1799,-0.1791,-0.1808,-0.1795,-0.1799,-0.178,-0.1787,-0.1766,-0.1765,-0.1801,-0.1803,-0.1856,-0.1896,-0.1919,0,0,0,-0.1777,-0.1793,-0.1798,-0.1827,-0.1809,-0.184,-0.18,-0.1804,-0.1791,-0.1765,-0.1802,-0.1803,-0.1855,-0.1893,-0.1916,-0.1738,-0.1738,0,0,-0.179,-0.1794,-0.1815,-0.1821,-0.1875,-0.1836,-0.188,-0.1841,-0.1811,-0.1803,-0.1804,-0.1859,-0.1896,-0.1918,-0.1833,-0.183,0,0,0,-0.1815,-0.1826,-0.1844,-0.1879,-0.1903,-0.1927,-0.1894,-0.1887,-0.1881,-0.1817,-0.1877,-0.1898,-0.191,-0.1797,-0.1795,-0.1811,-0.1811,-0.1811,-0.1811,-0.1791,-0.1834,-0.1878,-0.1928,-0.1957,-0.1983,-0.2,-0.1986,-0.1933,-0.1949,-0.1958,-0.2035,-0.1916,-0.1912,-0.1962,-0.1962,-0.1962,-0.1962,-0.1963,-0.18,-0.1816,-0.19,-0.1951,-0.2012,-0.2044,-0.2089,-0.2073,-0.2093,-0.204,-0.2047,-0.188,-0.1913,-0.1968,-0.1967,-0.1966,-0.1965,-0.1965,-0.1965,-0.1745,-0.1763,-0.1822,-0.1923,-0.201,-0.2073,-0.2135,-0.2166,-0.2153,-0.2177,-0.2012,-0.2008,-0.206,-0.2155,-0.2156,-0.2156,-0.2156,-0.2157,-0.2157,-0.1648,-0.172,-0.1752,-0.1883,-0.1936,-0.2035,-0.215,-0.2169,-0.213,-0.2079,-0.2076,-0.21,-0.2094,-0.2072,-0.2162,-0.2161,-0.216,-0.216,-0.2159,-0.1539,-0.1588,-0.1631,-0.1683,-0.1821,-0.182,-0.1994,-0.198,-0.2041,-0.1975,-0.2011,-0.2013,-0.1976,-0.1974,-0.1949,-0.2002,-0.2002,-0.2002,-0.2002,-0.1443,-0.148,-0.1497,-0.1535,-0.1609,-0.1695,-0.1596,-0.1639,-0.1729,-0.1736,-0.1748,-0.165,-0.1661,-0.1601,-0.1608,-0.1574,-0.153,-0.1529,-0.1529,-0.1359,-0.139,-0.1345,-0.1414,-0.1476,-0.1486,-0.1302,-0.1258,-0.1368,-0.1514,-0.1706,-0.1962,-0.1844,-0.1852,-0.1779,-0.1783,-0.1735,0,0]},{"header":{"parameterUnit":"m.s-1","parameterCategory":2,"la1":30.2992,"la2":30.254,"lo1":-89.0895,"lo2":-89.0443,"dy":0.0025,"dx":0.0025,"nx":19,"ny":19,"refTime":"2026-05-12T21:00:00:Z","depth":"2","parameterNumber":3,"parameterNumberName":"V-component_of_CURRENTS"},"data":[0,0,0,-0.0293,-0.0294,-0.032,-0.0319,-0.0254,-0.0253,0,0,0,0,0,0,0,0,0,0,0,-0.027,-0.0271,-0.0292,-0.0294,-0.032,-0.0319,-0.0254,-0.0253,0,0,0,0,0,0,0,0,0,0,0,-0.027,-0.0271,-0.0272,-0.0295,-0.032,-0.0319,-0.0254,-0.025,0,0,0,0,0,0,0,0,0,0,-0.0234,-0.0226,-0.0271,-0.0272,-0.0295,-0.032,-0.0319,-0.025,-0.025,-0.0226,0,-0.0252,0,-0.0273,-0.025,-0.025,0,0,0,-0.0256,-0.0226,-0.0259,-0.0272,-0.0296,-0.032,-0.0297,-0.0251,-0.025,-0.0226,-0.0251,-0.025,-0.0272,-0.025,-0.025,-0.0241,-0.0242,0,0,-0.0255,-0.0242,-0.026,-0.0259,-0.0329,-0.0297,-0.0299,-0.0251,-0.0245,-0.0251,-0.0249,-0.027,-0.0249,-0.0249,-0.0241,-0.0241,0,0,0,-0.0277,-0.0241,-0.0275,-0.0261,-0.0286,-0.0299,-0.0301,-0.0246,-0.0266,-0.0249,-0.027,-0.0249,-0.0249,-0.0241,-0.0241,-0.0273,0,0,0,-0.0274,-0.0257,-0.0275,-0.0262,-0.0288,-0.0278,-0.0296,-0.0268,-0.0265,-0.027,-0.0249,-0.0248,-0.0241,-0.0241,-0.0272,-0.0291,0,0,0,-0.0264,-0.0255,-0.0272,-0.0262,-0.0295,-0.028,-0.0294,-0.0267,-0.0279,-0.025,-0.0248,-0.024,-0.0241,-0.027,-0.0288,-0.0257,0,0,0,-0.0228,-0.0254,-0.0272,-0.0298,-0.0296,-0.0303,-0.0294,-0.0278,-0.0254,-0.0249,-0.0241,-0.0241,-0.027,-0.0287,-0.0256,-0.0238,-0.024,0,0,-0.0241,-0.0255,-0.0271,-0.0289,-0.0328,-0.0295,-0.0302,-0.0272,-0.0256,-0.0242,-0.0242,-0.0272,-0.0288,-0.0257,-0.0274,-0.0275,0,0,0,-0.0261,-0.0281,-0.0287,-0.0323,-0.0327,-0.0332,-0.0304,-0.0285,-0.0277,-0.0257,-0.0276,-0.0285,-0.0264,-0.0252,-0.0253,-0.0244,-0.0244,-0.0244,-0.0244,-0.0245,-0.0281,-0.0316,-0.0359,-0.0359,-0.035,-0.0335,-0.0315,-0.0287,-0.0296,-0.0314,-0.0318,-0.0308,-0.0307,-0.0314,-0.0314,-0.0314,-0.0314,-0.0314,-0.0294,-0.0343,-0.0362,-0.0413,-0.0424,-0.0424,-0.0389,-0.0372,-0.0346,-0.0339,-0.0316,-0.0291,-0.031,-0.0317,-0.0316,-0.0316,-0.0315,-0.0315,-0.0315,-0.0326,-0.0362,-0.0388,-0.0471,-0.0492,-0.0483,-0.0484,-0.0446,-0.0383,-0.0375,-0.0319,-0.0318,-0.0317,-0.0347,-0.0347,-0.0347,-0.0347,-0.0347,-0.0347,-0.0368,-0.04,-0.0476,-0.0529,-0.0564,-0.0581,-0.0536,-0.0496,-0.0403,-0.0353,-0.0352,-0.0328,-0.0327,-0.0318,-0.0346,-0.0346,-0.0346,-0.0346,-0.0346,-0.0456,-0.0467,-0.0578,-0.0627,-0.0689,-0.0687,-0.0627,-0.05,-0.043,-0.0365,-0.0322,-0.0323,-0.0301,-0.0301,-0.0291,-0.031,-0.031,-0.031,-0.031,-0.0512,-0.0528,-0.0671,-0.0747,-0.0789,-0.0741,-0.0667,-0.0521,-0.0372,-0.0298,-0.0299,-0.0302,-0.0303,-0.0281,-0.0281,-0.0271,-0.0284,-0.0284,-0.0284,-0.0579,-0.0616,-0.0716,-0.0789,-0.0828,-0.078,-0.0689,-0.0518,-0.0318,-0.0284,-0.0304,-0.0306,-0.0312,-0.0314,-0.028,-0.028,-0.0263,0,0]}],[{"header":{"parameterUnit":"m.s-1","parameterCategory":2,"la1":30.2992,"la2":30.254,"lo1":-89.0895,"lo2":-89.0443,"dy":0.0025,"dx":0.0025,"nx":19,"ny":19,"refTime":"2026-05-12T21:00:00:Z","depth":"4","parameterNumber":2,"parameterNumberName":"U-component_of_CURRENTS"},"data":[0,0,0,-0.0536,-0.0542,-0.0868,-0.0869,-0.1305,-0.1308,0,0,0,0,0,0,0,0,0,0,0,-0.0412,-0.0414,-0.0535,-0.0543,-0.0868,-0.087,-0.1304,-0.1308,0,0,0,0,0,0,0,0,0,0,0,-0.0411,-0.0414,-0.0416,-0.0544,-0.0868,-0.087,-0.1303,-0.1053,0,0,0,0,0,0,0,0,0,0,-0.0735,-0.0684,-0.0413,-0.0416,-0.0546,-0.0867,-0.087,-0.1041,-0.1069,-0.1162,0,-0.1211,0,-0.1278,-0.1338,-0.1339,0,0,0,-0.0546,-0.0661,-0.0686,-0.0417,-0.0549,-0.0867,-0.0722,-0.1056,-0.1088,-0.1199,-0.1218,-0.1235,-0.1285,-0.1341,-0.1343,-0.1706,-0.1707,0,0,-0.0528,-0.054,-0.0663,-0.0705,-0.0636,-0.0712,-0.0732,-0.1075,-0.1148,-0.1219,-0.1245,-0.1292,-0.1343,-0.1347,-0.1706,-0.1707,0,0,0,-0.0474,-0.0528,-0.0545,-0.0686,-0.0749,-0.0721,-0.0745,-0.1133,-0.1121,-0.125,-0.1297,-0.1346,-0.1351,-0.1705,-0.1706,-0.167,0,0,0,-0.0464,-0.0495,-0.0536,-0.0557,-0.0742,-0.0962,-0.0795,-0.1096,-0.1138,-0.1295,-0.1346,-0.1356,-0.1704,-0.1705,-0.1669,-0.1664,0,0,0,-0.0397,-0.0492,-0.0512,-0.0554,-0.0688,-0.0956,-0.0968,-0.1106,-0.1167,-0.134,-0.1357,-0.1704,-0.1705,-0.1669,-0.1664,-0.1662,0,0,0,-0.0417,-0.0476,-0.0514,-0.0607,-0.0684,-0.088,-0.0966,-0.1142,-0.1281,-0.1348,-0.1704,-0.1706,-0.1668,-0.1663,-0.1661,-0.1394,0,0,0,-0.0478,-0.0487,-0.0525,-0.0563,-0.0709,-0.0835,-0.1055,-0.1245,-0.134,-0.1592,-0.1601,-0.167,-0.1664,-0.1662,-0.1497,0,0,0,0,-0.0531,-0.0558,-0.0618,-0.0714,-0.0852,-0.1027,-0.1228,-0.1317,-0.1506,-0.1435,-0.1714,-0.1713,-0.1711,-0.1558,-0.1714,-0.1714,-0.1714,-0.1713,-0.1713,-0.0573,-0.0602,-0.0727,-0.0814,-0.0943,-0.1178,-0.1309,-0.1472,-0.1574,-0.1625,-0.1715,-0.1736,-0.1575,-0.1748,-0.1748,-0.1747,-0.1747,-0.1747,-0.1747,-0.063,-0.069,-0.078,-0.0908,-0.1057,-0.1226,-0.1451,-0.1513,-0.17,-0.174,-0.1739,-0.1571,-0.1745,-0.1745,-0.1746,-0.1746,-0.1746,-0.1746,-0.1746,-0.0651,-0.0695,-0.0787,-0.0934,-0.1114,-0.129,-0.1335,-0.1559,-0.1667,-0.1701,-0.1553,-0.1726,-0.1691,-0.1706,-0.1706,-0.1706,-0.1706,-0.1706,-0.1706,-0.0629,-0.073,-0.0814,-0.0998,-0.1069,-0.1176,-0.1341,-0.1302,-0.1468,-0.1506,-0.1705,-0.1723,-0.1724,-0.1692,-0.1706,-0.1706,-0.1706,-0.1706,-0.1706,-0.0634,-0.0672,-0.0748,-0.0834,-0.0971,-0.1049,-0.1174,-0.1094,-0.1089,-0.1087,-0.1394,-0.141,-0.14,-0.141,-0.1365,-0.1283,-0.1279,-0.1276,0,-0.0596,-0.0635,-0.0679,-0.0739,-0.0771,-0.0962,-0.078,-0.0747,-0.0959,-0.1072,-0.1103,-0.1459,-0.1468,-0.146,-0.1463,-0.1411,0,0,0,-0.0573,-0.0573,-0.0578,-0.0643,-0.0708,-0.071,-0.0735,-0.0716,-0.1037,-0.0766,-0.119,-0.1213,-0.1149,-0.1705,-0.1728,-0.1729,-0.1679,0,0]},{"header":{"parameterUnit":"m.s-1","parameterCategory":2,"la1":30.2992,"la2":30.254,"lo1":-89.0895,"lo2":-89.0443,"dy":0.0025,"dx":0.0025,"nx":19,"ny":19,"refTime":"2026-05-12T21:00:00:Z","depth":"4","parameterNumber":3,"parameterNumberName":"V-component_of_CURRENTS"},"data":[0,0,0,0.0396,0.0396,0.0395,0.0395,0.0421,0.0422,0,0,0,0,0,0,0,0,0,0,0,0.0415,0.0416,0.0396,0.0396,0.0395,0.0395,0.0421,0.0422,0,0,0,0,0,0,0,0,0,0,0,0.0415,0.0415,0.0416,0.0396,0.0395,0.0395,0.0421,0.0413,0,0,0,0,0,0,0,0,0,0,0.041,0.0445,0.0415,0.0416,0.0396,0.0395,0.0395,0.0412,0.0414,0.0432,0,0.0453,0,0.0435,0.0425,0.0425,0,0,0,0.0388,0.0444,0.0424,0.0416,0.0396,0.0395,0.0393,0.0413,0.0414,0.0434,0.0453,0.0453,0.0435,0.0425,0.0425,0.0491,0.0492,0,0,0.0389,0.0428,0.0424,0.0426,0.0424,0.0393,0.0393,0.0413,0.044,0.0453,0.0454,0.0436,0.0425,0.0426,0.0491,0.0491,0,0,0,0.0394,0.0429,0.0408,0.0426,0.0422,0.0393,0.0393,0.0439,0.0428,0.0454,0.0436,0.0426,0.0426,0.0491,0.0491,0.0444,0,0,0,0.0394,0.0431,0.0409,0.0434,0.0422,0.0431,0.0419,0.0427,0.0427,0.0436,0.0426,0.0427,0.049,0.0491,0.0444,0.0367,0,0,0,0.041,0.0433,0.0437,0.0436,0.0434,0.0429,0.0419,0.0426,0.0417,0.0425,0.0427,0.049,0.0491,0.0445,0.037,0.0304,0,0,0,0.0442,0.0411,0.0439,0.0385,0.0434,0.0338,0.0419,0.0395,0.0396,0.0426,0.049,0.0491,0.0445,0.0372,0.0307,0.0242,0,0,0,0.0394,0.0408,0.0358,0.038,0.0252,0.0336,0.0264,0.0334,0.0424,0.0483,0.0485,0.0444,0.037,0.0305,0.0298,0,0,0,0,0.0331,0.031,0.027,0.0221,0.0171,0.0167,0.0229,0.0308,0.0429,0.0432,0.0476,0.043,0.039,0.0364,0.0495,0.0495,0.0495,0.0495,0.0495,0.0258,0.0213,0.0129,0.0081,0.004,0.007,0.0106,0.0244,0.0343,0.0436,0.0417,0.0364,0.0341,0.0478,0.0478,0.0478,0.0478,0.0478,0.0478,0.0135,0.0079,0.0049,-0.0037,-0.005,-0.0068,0.0047,0.0165,0.0275,0.0399,0.0365,0.035,0.0474,0.0474,0.0475,0.0475,0.0476,0.0476,0.0476,0.0062,0.0045,0.0007,-0.0093,-0.0135,-0.0108,-0.0091,0.0053,0.0211,0.0207,0.0192,0.0305,0.0275,0.022,0.022,0.0219,0.0218,0.0218,0.0218,0.0016,-0.0017,-0.0089,-0.0159,-0.0202,-0.0206,-0.0151,-0.0121,0.0004,0.0086,0.0194,0.0275,0.0284,0.026,0.0208,0.021,0.0211,0.0212,0.0213,-0.0052,-0.0071,-0.0168,-0.0228,-0.0315,-0.0325,-0.0296,-0.0263,-0.0259,-0.0225,0.0017,0.0029,0.0018,0.0032,-0.0001,-0.0133,-0.0134,-0.0135,0,-0.0097,-0.0117,-0.0242,-0.0335,-0.0404,-0.0394,-0.041,-0.0394,-0.0281,-0.0225,-0.0244,0.003,0.0041,0.0031,0.0042,0.0004,0,0,0,-0.0146,-0.0176,-0.0267,-0.0355,-0.0437,-0.0409,-0.0402,-0.0394,-0.0251,-0.0342,-0.0163,-0.0156,-0.0058,0.0181,0.0192,0.0202,0.0163,0,0]}]]